Location: Champs
(48.8539°N, 2.6040°E)
Time: 12:01:11
(UTC+00:00)

ATLAS CENTAUR R/B - Visible Passes

Search period start: 29 May 2022 00:00
Search period end: 08 June 2022 00:00
Orbit: 443 x 688 km, 64.6° (Epoch: 25 May)

Date Brightness Start Highest point End Pass type
(mag) Time Alt. Az. Time Alt. Az. Time Alt. Az.
29 May 3.9 00:12:21 10° W 00:13:37 11° WSW 00:13:37 11° WSW visible
29 May 3.0 20:52:22 10° NNW 20:56:49 33° NE 21:01:08 10° ESE visible
29 May 2.0 22:31:08 10° NW 22:35:51 52° WSW 22:37:34 34° S visible
30 May 2.7 20:52:25 10° NNW 20:57:04 41° NE 21:01:32 10° ESE visible
30 May 2.5 22:31:23 10° NW 22:35:52 38° WSW 22:37:32 28° SSW visible
31 May 2.3 20:52:28 10° NNW 20:57:16 52° NE 21:01:32 12° ESE visible
31 May 3.0 22:31:43 10° WNW 22:35:49 28° WSW 22:37:32 22° SSW visible
01 Jun 1.9 20:52:31 10° NW 20:57:25 68° NE 21:01:34 13° SE visible
01 Jun 3.4 22:32:09 10° WNW 22:35:43 21° WSW 22:37:34 17° SW visible
02 Jun 1.7 20:52:35 10° NW 20:57:30 88° ENE 21:01:37 13° SE visible
02 Jun 3.8 22:32:49 10° WNW 22:35:34 15° WSW 22:37:37 12° SW visible
03 Jun 1.9 20:52:40 10° NW 20:57:32 70° SW 21:01:42 12° SSE visible
03 Jun 4.1 22:34:11 10° W 22:35:22 11° WSW 22:36:32 10° WSW visible
04 Jun 2.2 20:52:47 10° NW 20:57:30 52° WSW 21:01:49 11° SSE visible
05 Jun 2.7 20:52:57 10° NW 20:57:25 38° WSW 21:01:40 10° S visible
06 Jun 3.2 20:53:11 10° WNW 20:57:17 28° WSW 21:01:11 10° S visible
07 Jun 3.7 20:53:32 10° WNW 20:57:05 21° WSW 21:00:30 10° SSW visible
